GW4477 Weather Reports


time (UTC)temp
C
wind
direction
speed
KPH
gust
KPH
rain 1hr
cm
rain 24hr
cm
rain mn
cm
humidity
%
barometer
mb
20260510194519 18 110 9.7 16.1 0.00 0.74 0.74 42 1025.5
20260510193020 18 62 3.2 12.9 0.00 0.74 0.74 41 1025.7
20260510191506 18 126 3.2 11.3 0.00 0.74 0.74 46 1025.7
20260510190010 17 87 6.4 12.9 0.00 0.74 0.74 44 1026.0
20260510184519 17 170 4.8 11.3 0.00 0.74 0.74 50 1025.9
20260510183018 17 27 3.2 11.3 0.00 0.74 0.74 49 1026.1
20260510181524 17 43 4.8 11.3 0.00 0.74 0.74 53 1026.2
20260510180013 17 9 4.8 12.9 0.00 0.74 0.74 52 1026.2
20260510174514 16 9 4.8 12.9 0.00 0.74 0.74 58 1026.1
20260510173019 16 38 3.2 9.7 0.00 0.74 0.74 56 1026.1
20260510171520 15 55 3.2 16.1 0.00 0.74 0.74 62 1026.3
20260510170026 13 37 3.2 11.3 0.00 0.74 0.74 64 1026.3
20260510164532 13 42 3.2 11.3 0.00 0.74 0.74 63 1026.4
20260510163016 13 120 6.4 14.5 0.00 0.74 0.74 62 1026.3
20260510161519 13 115 6.4 14.5 0.00 0.74 0.74 62 1026.2
20260510160023 13 119 6.4 14.5 0.00 0.74 0.74 67 1025.7
20260510154531 12 80 4.8 12.9 0.00 0.74 0.74 73 1025.6
20260510153018 12 42 3.2 12.9 0.00 0.74 0.74 78 1025.5
20260510151519 11 98 4.8 14.5 0.00 0.74 0.74 82 1025.2
20260510150024 10 138 4.8 12.9 0.00 0.74 0.74 89 1025.0
20260510144508 10 46 1.6 6.4 0.03 0.74 0.74 92 1024.8
20260510143003 8 36 1.6 8.0 0.10 0.74 0.74 91 1024.9
20260510141503 8 33 4.8 12.9 0.15 0.74 0.74 90 1025.0
20260510140004 8 36 4.8 12.9 0.18 0.74 0.74 90 1024.8
20260510134508 8 81 1.6 12.9 0.20 0.71 0.71 90 1024.3
20260510133007 8 83 1.6 11.3 0.13 0.64 0.64 90 1024.6
20260510131504 8 340 4.8 19.3 0.13 0.58 0.58 90 1024.4
20260510130009 9 28 8.0 17.7 0.13 0.56 0.56 90 1024.5
20260510124504 9 15 8.0 17.7 0.20 0.51 0.51 90 1024.5
20260510123008 9 30 8.0 16.1 0.36 0.51 0.51 89 1024.1
20260510121512 9 36 8.0 16.1 0.46 0.46 0.46 88 1023.5
20260510120004 10 29 8.0 17.7 0.43 0.43 0.43 88 1023.2
20260510114516 10 20 6.4 11.3 0.30 0.30 0.30 86 1022.9
20260510113014 10 34 6.4 11.3 0.15 0.15 0.15 83 1022.6
20260510111513 11 49 4.8 12.9 0.00 0.00 0.00 79 1022.1
20260510110024 12 348 4.8 14.5 0.00 0.00 0.00 72 1021.8
20260510104504 12 21 8.0 19.3 0.00 0.00 0.00 60 1020.9
20260510103008 12 70 3.2 16.1 0.00 0.00 0.00 60 1019.9
20260510101512 12 123 8.0 19.3 0.00 0.00 0.00 60 1019.2
20260510100018 12 83 8.0 20.9 0.00 0.00 0.00 60 1019.2
20260510094529 12 28 4.8 12.9 0.00 0.00 0.00 60 1019.4
20260510093004 12 75 3.2 12.9 0.00 0.00 0.00 59 1019.4
20260510091512 13 44 4.8 16.1 0.00 0.00 0.00 59 1019.3
20260510090016 13 325 8.0 17.7 0.00 0.00 0.00 59 1019.2
20260510084521 13 32 8.0 19.3 0.00 0.00 0.00 59 1019.3
20260510083024 13 146 6.4 14.5 0.00 0.00 0.00 60 1019.5
20260510081508 13 158 4.8 14.5 0.00 0.00 0.00 61 1019.4
20260510080010 13 54 6.4 24.1 0.00 0.00 0.00 61 1019.4
20260510074518 13 44 6.4 20.9 0.00 0.00 0.00 1019.3
20260510073024 13 16 6.4 22.5 0.00 0.00 0.00 61 1019.1
20260510071523 13 14 6.4 22.5 0.00 0.00 0.00 61 1019.0
20260510070008 13 31 8.0 22.5 0.00 0.00 0.00 60 1019.2
20260510064516 14 18 9.7 20.9 0.00 0.00 0.00 61 1019.1
20260510063022 14 341 9.7 22.5 0.00 0.00 0.00 62 1019.0
20260510061531 14 23 9.7 20.9 0.00 0.00 0.00 61 1018.3
20260510060042 14 46 12.9 19.3 0.00 0.00 0.00 61 1018.3
20260510054516 15 57 11.3 22.5 0.00 0.00 0.00 64 1018.2
20260510053003 15 98 4.8 24.1 0.00 0.00 0.00 65 1016.5
20260510051503 15 111 6.4 19.3 0.00 0.00 0.00 65 1015.9
20260510050009 15 100 6.4 19.3 0.00 0.00 0.00 65 1015.7
20260510044514 15 107 6.4 19.3 0.00 0.00 0.00 64 1015.3
20260510043018 15 61 6.4 24.1 0.00 0.00 0.00 63 1015.1
20260510041513 16 112 8.0 20.9 0.00 0.00 0.00 61 1014.6
20260510040008 16 107 4.8 17.7 0.00 0.00 0.00 59 1014.0
20260510034509 16 71 4.8 12.9 0.00 0.00 0.00 58 1014.2
20260510033012 17 67 4.8 14.5 0.00 0.00 0.00 56 1013.8
20260510031518 17 111 6.4 17.7 0.00 0.00 0.00 54 1013.1
20260510030021 18 33 6.4 17.7 0.00 0.00 0.00 52 1012.9
20260510024510 18 59 8.0 16.1 0.00 0.00 0.00 51 1012.5
20260510023030 18 59 8.0 22.5 0.00 0.00 0.00 49 1012.0
20260510021520 19 42 9.7 22.5 0.00 0.00 0.00 48 1011.6
20260510020022 20 67 9.7 27.4 0.00 0.00 0.00 46 1011.4
20260510014508 21 311 11.3 25.7 0.00 0.00 0.00 43 1010.9
20260510013014 23 26 14.5 22.5 0.00 0.00 0.00 40 1010.4
20260510011521 25 10 9.7 19.3 0.00 0.00 0.00 29 1009.8
20260510010026 26 349 8.0 16.1 0.00 0.00 0.00 25 1009.2
20260510004522 27 309 11.3 20.9 0.00 0.00 0.00 24 1008.9
20260510003008 28 341 12.9 22.5 0.00 0.00 0.00 24 1008.8
20260510001517 28 340 11.3 24.1 0.00 0.00 0.00 23 1008.8
20260510000020 29 329 12.9 22.5 0.00 0.00 0.00 22 1008.8
20260509234523 29 351 16.1 29.0 0.00 0.00 0.00 22 1008.7
20260509233028 30 44 14.5 27.4 0.00 0.00 0.00 21 1008.7
20260509231513 30 9 12.9 25.7 0.00 0.00 0.00 21 1008.3
20260509230016 30 11 8.0 19.3 0.00 0.00 0.00 21 1008.1
20260509224522 31 335 11.3 17.7 0.00 0.00 0.00 21 1008.1
20260509223028 31 9 12.9 17.7 0.00 0.00 0.00 21 1008.2
20260509221531 31 22 12.9 25.7 0.00 0.00 0.00 20 1008.2
20260509220016 31 352 8.0 19.3 0.00 0.00 0.00 20 1008.2
20260509214520 31 346 9.7 17.7 0.00 0.00 0.00 22 1008.1
20260509213026 31 286 6.4 14.5 0.00 0.00 0.00 21 1008.2
20260509211549 31 321 8.0 19.3 0.00 0.00 0.00 21 1008.2
20260509210026 31 294 11.3 17.7 0.00 0.00 0.00 21 1008.3
20260509204503 32 306 6.4 20.9 0.00 0.00 0.00 23 1008.3
20260509203006 31 331 3.2 25.7 0.00 0.00 0.00 24 1008.5
20260509201505 31 305 1.6 8.0 0.00 0.00 0.00 24 1008.6
20260509200012 30 291 1.6 14.5 0.00 0.00 0.00 27 1008.7